Canadian, TX

9:14 PM CDT on September 24, 2016 (GMT -0500)
Hemphill County

Weather History for KHHF - November, 2012

Change the Weather History Date:

Thursday, November 1, 2012

  Actual Average (KPPA) Record (KPPA)
Temperature  
Mean Temperature 62 °F -  
Max Temperature 82 °F 64 °F 84 °F (1982)
Min Temperature 41 °F 37 °F 15 °F (1991)
Degree Days  
Heating Degree Days 4    
Growing Degree Days 12 (Base 50)    
Moisture  
Dew Point 32 °F    
Average Humidity 36    
Maximum Humidity 70    
Minimum Humidity 12    
Precipitation  
Precipitation 0.00 in - - ()
Sea Level Pressure  
Sea Level Pressure 29.98 in    
Wind  
Wind Speed 4 mph (SW)    
Max Wind Speed 13 mph    
Max Gust Speed -    
Visibility 10 miles    
Events      
Averages and records for this station are not official NWS values.
T = Trace of Precipitation, MM = Missing Value Source: NWS Daily Summary

Daily Weather History Graph

Daily Weather History Graph

Search for Another Location

Airport or City:

Trip Planner

Search our weather history database for the weather conditions in past years. The results will help you decide how hot, cold, wet, or windy it might be!

Date:

Astronomy

Nov. 01, 2012 Rise Set
Actual Time 8:04 AM CDT 6:45 PM CDT
Civil Twilight 7:37 AM CDT 7:11 PM CDT
Nautical Twilight 7:07 AM CDT 7:42 PM CDT
Astronomical Twilight 6:37 AM CDT 8:12 PM CDT
Moon 8:48 PM CDT (11/1) 10:34 AM CDT (11/1)
Length of Visible Light 11h 33m
Length of Day
10h 40m
Waning Gibbous, 93% of the Moon is Illuminated
Nov 1
Waning Gibbous
Nov 6
Last Quarter
Nov 13
New
Nov 20
First Quarter
Nov 28
Full

Hourly Weather History & Observations

Time (CDT) Temp. Windchill Dew Point Humidity Pressure Visibility Wind Dir Wind Speed Gust Speed Precip Events Conditions
12:15 AM 59.0 °F - 33.8 °F 39% 30.04 in 10.0 mi North 3.5 mph - N/A   Clear
12:35 AM 59.0 °F - 32.0 °F 36% 30.05 in 10.0 mi Calm Calm - N/A   Clear
12:55 AM 57.2 °F - 32.0 °F 38% 30.04 in 10.0 mi Calm Calm - N/A   Clear
1:15 AM 53.6 °F - 33.8 °F 47% 30.04 in 10.0 mi Calm Calm - N/A   Clear
1:35 AM 50.0 °F - 33.8 °F 54% 30.04 in 10.0 mi South 3.5 mph - N/A   Clear
2:15 AM 50.0 °F - 33.8 °F 54% 30.03 in 10.0 mi Calm Calm - N/A   Clear
2:35 AM 48.2 °F - 33.8 °F 58% 30.03 in 10.0 mi North 8.1 mph - N/A   Clear
2:55 AM 51.8 °F - 35.6 °F 54% 30.03 in 10.0 mi SW 3.5 mph - N/A   Clear
3:15 AM 50.0 °F - 35.6 °F 58% 30.03 in 10.0 mi SW 5.8 mph - N/A   Clear
3:35 AM 50.0 °F - 35.6 °F 58% 30.02 in 10.0 mi SW 3.5 mph - N/A   Clear
3:55 AM 50.0 °F - 33.8 °F 54% 30.02 in 10.0 mi Calm Calm - N/A   Clear
4:15 AM 46.4 °F 45.2 °F 33.8 °F 62% 30.02 in 10.0 mi North 3.5 mph - N/A   Clear
4:35 AM 46.4 °F - 33.8 °F 62% 30.02 in 10.0 mi Calm Calm - N/A   Clear
5:15 AM 50.0 °F - 33.8 °F 54% 30.02 in 10.0 mi Calm Calm - N/A   Clear
5:35 AM 42.8 °F 41.1 °F 32.0 °F 66% 30.02 in 10.0 mi SW 3.5 mph - N/A   Clear
5:55 AM 46.4 °F 45.2 °F 33.8 °F 62% 30.03 in 10.0 mi NNW 3.5 mph - N/A   Clear
6:15 AM 46.4 °F 44.3 °F 33.8 °F 62% 30.03 in 10.0 mi North 4.6 mph - N/A   Clear
6:35 AM 44.6 °F - 32.0 °F 61% 30.03 in 10.0 mi Calm Calm - N/A   Clear
6:55 AM 44.6 °F 43.1 °F 32.0 °F 61% 30.03 in 10.0 mi SW 3.5 mph - N/A   Clear
7:35 AM 41.0 °F - 32.0 °F 70% 30.03 in 10.0 mi Calm Calm - N/A   Clear
7:55 AM 42.8 °F - 32.0 °F 66% 30.03 in 10.0 mi Calm Calm - N/A   Clear
8:35 AM 41.0 °F 38.0 °F 32.0 °F 70% 30.04 in 10.0 mi WSW 4.6 mph - N/A   Clear
9:15 AM 46.4 °F 45.2 °F 32.0 °F 57% 30.05 in 10.0 mi North 3.5 mph - N/A   Clear
9:35 AM 50.0 °F - 33.8 °F 54% 30.06 in 10.0 mi North 3.5 mph - N/A   Clear
9:55 AM 53.6 °F - 33.8 °F 47% 30.06 in 10.0 mi North 3.5 mph - N/A   Clear
10:15 AM 57.2 °F - 32.0 °F 38% 30.06 in 10.0 mi NW 9.2 mph - N/A   Clear
10:35 AM 60.8 °F - 32.0 °F 34% 30.06 in 10.0 mi NW 4.6 mph - N/A   Clear
11:15 AM 64.4 °F - 32.0 °F 30% 30.06 in 10.0 mi NNW 5.8 mph - N/A   Clear
11:35 AM 66.2 °F - 32.0 °F 28% 30.06 in 10.0 mi NW 5.8 mph - N/A   Clear
11:55 AM 68.0 °F - 32.0 °F 26% 30.05 in 10.0 mi North 4.6 mph - N/A   Clear
12:15 PM 69.8 °F - 32.0 °F 25% 30.04 in 10.0 mi NNW 3.5 mph - N/A   Clear
12:35 PM 71.6 °F - 32.0 °F 23% 30.03 in 10.0 mi Calm Calm - N/A   Clear
12:55 PM 71.6 °F - 33.8 °F 25% 30.02 in 10.0 mi Calm Calm - N/A   Clear
1:15 PM 73.4 °F - 33.8 °F 23% 30.02 in 10.0 mi Calm Calm - N/A   Clear
1:35 PM 75.2 °F - 32.0 °F 21% 30.01 in 10.0 mi Calm Calm - N/A   Clear
2:15 PM 78.8 °F - 32.0 °F 18% 29.98 in 10.0 mi SW 3.5 mph - N/A   Clear
2:35 PM 78.8 °F - 30.2 °F 17% 29.97 in 10.0 mi ESE 3.5 mph - N/A   Clear
2:55 PM 80.6 °F - 30.2 °F 16% 29.95 in 10.0 mi South 5.8 mph - N/A   Clear
3:15 PM 80.6 °F - 30.2 °F 16% 29.95 in 10.0 mi SW 3.5 mph - N/A   Clear
3:35 PM 82.4 °F - 30.2 °F 15% 29.94 in 10.0 mi WSW 5.8 mph - N/A   Clear
3:55 PM 82.4 °F - 28.4 °F 14% 29.94 in 10.0 mi NW 3.5 mph - N/A   Clear
4:15 PM 82.4 °F - 26.6 °F 13% 29.93 in 10.0 mi Calm Calm - N/A   Clear
4:35 PM 82.4 °F - 26.6 °F 13% 29.92 in 10.0 mi South 9.2 mph - N/A   Clear
4:55 PM 82.4 °F - 24.8 °F 12% 29.92 in 10.0 mi WSW 4.6 mph - N/A   Clear
5:15 PM 82.4 °F - 24.8 °F 12% 29.91 in 10.0 mi WSW 3.5 mph - N/A   Clear
5:35 PM 82.4 °F - 24.8 °F 12% 29.91 in 10.0 mi SSW 6.9 mph - N/A   Clear
5:55 PM 82.4 °F - 26.6 °F 13% 29.91 in 10.0 mi South 4.6 mph - N/A   Clear
6:15 PM 80.6 °F - 26.6 °F 14% 29.91 in 10.0 mi South 3.5 mph - N/A   Clear
6:35 PM 78.8 °F - 26.6 °F 15% 29.91 in 10.0 mi Calm Calm - N/A   Clear
6:55 PM 73.4 °F - 26.6 °F 18% 29.91 in 10.0 mi SSE 5.8 mph - N/A   Clear
7:15 PM 69.8 °F - 28.4 °F 21% 29.91 in 10.0 mi South 6.9 mph - N/A   Clear
7:35 PM 69.8 °F - 30.2 °F 23% 29.91 in 10.0 mi SE 11.5 mph - N/A   Clear
7:55 PM 69.8 °F - 32.0 °F 25% 29.91 in 10.0 mi SE 10.4 mph - N/A   Clear
8:15 PM 71.6 °F - 33.8 °F 25% 29.92 in 10.0 mi SE 12.7 mph - N/A   Clear
8:35 PM 69.8 °F - 33.8 °F 27% 29.91 in 10.0 mi SE 11.5 mph - N/A   Clear
8:55 PM 69.8 °F - 33.8 °F 27% 29.92 in 10.0 mi SSE 9.2 mph - N/A   Clear
9:15 PM 68.0 °F - 33.8 °F 28% 29.92 in 10.0 mi SSE 6.9 mph - N/A   Clear
9:35 PM 68.0 °F - 33.8 °F 28% 29.92 in 10.0 mi SSE 10.4 mph - N/A   Clear
9:55 PM 68.0 °F - 33.8 °F 28% 29.91 in 10.0 mi SSE 10.4 mph - N/A   Clear
10:15 PM 68.0 °F - 33.8 °F 28% 29.91 in 10.0 mi SSE 10.4 mph - N/A   Clear
10:35 PM 66.2 °F - 33.8 °F 30% 29.91 in 10.0 mi SSE 11.5 mph - N/A   Clear
10:55 PM 66.2 °F - 33.8 °F 30% 29.91 in 10.0 mi South 9.2 mph - N/A   Clear
11:15 PM 62.6 °F - 33.8 °F 34% 29.91 in 10.0 mi NNW 3.5 mph - N/A   Clear
11:35 PM 60.8 °F - 33.8 °F 36% 29.91 in 10.0 mi Calm Calm - N/A   Clear
11:55 PM 59.0 °F - 33.8 °F 39% 29.91 in 10.0 mi West 5.8 mph - N/A   Clear